Weather History for Corinth, MS

Change the Weather History Date:

Monday, November 7, 2011

  Actual Average Record
Temperature  
Mean Temperature 60 °F -  
Max Temperature 73 °F 63 °F 80 °F (1934)
Min Temperature 46 °F 39 °F 18 °F (1993)
Degree Days  
Heating Degree Days 6    
Growing Degree Days 10 (Base 50)    
Moisture  
Dew Point 49 °F    
Average Humidity 72    
Maximum Humidity 100    
Minimum Humidity 44    
Precipitation  
Precipitation 0.00 in - - ()
Sea Level Pressure  
Sea Level Pressure 30.24 in    
Wind  
Wind Speed 5 mph (SSE)    
Max Wind Speed 14 mph    
Max Gust Speed 20 mph    
Visibility 10 miles    
Events      
Averages and records for this station are not official NWS values.
T = Trace of Precipitation, MM = Missing Value Source: NWS Daily Summary

Daily Weather History Graph

Daily Weather History Graph

Search for Another Location

Airport:

Trip Planner

Search our weather history database for the weather conditions in past years. The results will help you decide how hot, cold, wet, or windy it might be!

Date:

Astronomy

Nov. 07, 2011 Rise Set
Actual Time 6:20 AM CST 4:55 PM CST
Civil Twilight 5:54 AM CST 5:21 PM CST
Nautical Twilight 5:24 AM CST 5:51 PM CST
Astronomical Twilight 4:54 AM CST 6:21 PM CST
Moon 3:01 PM CST (11/7) 3:28 AM CST (11/7)
Length of Visible Light 11h 27m
Length of Day
10h 34m
Waxing Gibbous, 92% of the Moon is Illuminated
Nov 7
Waxing Gibbous
Nov 10
Full
Nov 18
Last Quarter
Nov 25
New
Dec 2
First Quarter

Hourly Weather History & Observations

Time (CST) Temp. Windchill Dew Point Humidity Pressure Visibility Wind Dir Wind Speed Gust Speed Precip Events Conditions
12:10 AM 53.6 °F - 48.2 °F 82% 30.26 in 10.0 mi South 4.6 mph - N/A   Clear
12:30 AM 55.4 °F - 48.2 °F 77% 30.26 in 10.0 mi South 4.6 mph - N/A   Clear
12:50 AM 55.4 °F - 48.2 °F 77% 30.26 in 10.0 mi South 3.5 mph - N/A   Clear
1:10 AM 53.6 °F - 48.2 °F 82% 30.26 in 10.0 mi Calm Calm - N/A   Clear
1:30 AM 51.8 °F - 48.2 °F 88% 30.27 in 10.0 mi Calm Calm - N/A   Clear
1:50 AM 51.8 °F - 46.4 °F 82% 30.26 in 10.0 mi SSE 3.5 mph - N/A   Clear
2:10 AM 51.8 °F - 48.2 °F 88% 30.27 in 10.0 mi South 3.5 mph - N/A   Clear
2:30 AM 50.0 °F - 46.4 °F 87% 30.27 in 10.0 mi SE 3.5 mph - N/A   Clear
2:50 AM 50.0 °F - 48.2 °F 94% 30.27 in 10.0 mi SE 3.5 mph - N/A   Clear
3:10 AM 50.0 °F - 48.2 °F 94% 30.27 in 10.0 mi SE 4.6 mph - N/A   Clear
3:30 AM 50.0 °F - 48.2 °F 94% 30.27 in 10.0 mi SE 3.5 mph - N/A   Clear
3:50 AM 48.2 °F - 46.4 °F 93% 30.27 in 10.0 mi SSE 4.6 mph - N/A   Mostly Cloudy
4:10 AM 50.0 °F - 46.4 °F 87% 30.28 in 10.0 mi South 3.5 mph - N/A   Mostly Cloudy
4:30 AM 46.4 °F - 44.6 °F 93% 30.28 in 10.0 mi Calm Calm - N/A   Mostly Cloudy
4:50 AM 46.4 °F - 44.6 °F 93% 30.28 in 10.0 mi Calm Calm - N/A   Mostly Cloudy
5:10 AM 46.4 °F 44.3 °F 44.6 °F 93% 30.28 in 7.0 mi SE 4.6 mph - N/A   Mostly Cloudy
5:30 AM 48.2 °F - 46.4 °F 93% 30.28 in 10.0 mi SE 4.6 mph - N/A   Mostly Cloudy
5:50 AM 48.2 °F - 46.4 °F 93% 30.29 in 10.0 mi SSE 3.5 mph - N/A   Mostly Cloudy
6:10 AM 46.4 °F 44.3 °F 44.6 °F 93% 30.28 in 10.0 mi SE 4.6 mph - N/A   Partly Cloudy
6:30 AM 46.4 °F 43.5 °F 46.4 °F 100% 30.28 in 9.0 mi SSE 5.8 mph - N/A   Clear
6:50 AM 48.2 °F - 46.4 °F 93% 30.29 in 10.0 mi SSE 5.8 mph - N/A   Clear
7:10 AM 50.0 °F - 48.2 °F 94% 30.29 in 10.0 mi SSE 5.8 mph - N/A   Clear
7:30 AM 53.6 °F - 50.0 °F 88% 30.30 in 10.0 mi SSE 5.8 mph - N/A   Clear
7:50 AM 55.4 °F - 50.0 °F 82% 30.30 in 10.0 mi SSE 8.1 mph - N/A   Clear
8:10 AM 57.2 °F - 50.0 °F 77% 30.30 in 10.0 mi SSE 11.5 mph - N/A   Clear
8:30 AM 59.0 °F - 50.0 °F 72% 30.30 in 10.0 mi SSE 11.5 mph - N/A   Clear
9:30 AM 64.4 °F - 51.8 °F 64% 30.30 in 10.0 mi SSE 13.8 mph 18.4 mph N/A   Unknown
9:50 AM 64.4 °F - 51.8 °F 64% 30.30 in 10.0 mi South 13.8 mph - N/A   Unknown
10:10 AM 66.2 °F - 51.8 °F 60% 30.30 in 10.0 mi South 13.8 mph 18.4 mph N/A   Unknown
10:30 AM 66.2 °F - 51.8 °F 60% 30.30 in 10.0 mi SSW 13.8 mph 19.6 mph N/A   Unknown
11:10 AM 68.0 °F - 53.6 °F 60% 30.29 in 10.0 mi SSW 10.4 mph - N/A   Unknown
11:30 AM 69.8 °F - 53.6 °F 56% 30.28 in 10.0 mi South 6.9 mph 16.1 mph N/A   Unknown
11:50 AM 69.8 °F - 53.6 °F 56% 30.26 in 10.0 mi SSE 10.4 mph 16.1 mph N/A   Unknown
12:10 PM 71.6 °F - 53.6 °F 53% 30.25 in 10.0 mi South 6.9 mph - N/A   Clear
12:30 PM 71.6 °F - 51.8 °F 50% 30.24 in 10.0 mi South 10.4 mph - N/A   Clear
12:50 PM 71.6 °F - 53.6 °F 53% 30.23 in 10.0 mi SW 9.2 mph - N/A   Clear
1:10 PM 73.4 °F - 51.8 °F 47% 30.22 in 10.0 mi South 6.9 mph - N/A   Clear
1:30 PM 73.4 °F - 51.8 °F 47% 30.21 in 10.0 mi SSE 9.2 mph - N/A   Clear
1:50 PM 73.4 °F - 51.8 °F 47% 30.20 in 10.0 mi SSE 10.4 mph - N/A   Clear
2:10 PM 73.4 °F - 51.8 °F 47% 30.20 in 10.0 mi SSE 6.9 mph - N/A   Clear
2:30 PM 73.4 °F - 50.0 °F 44% 30.19 in 10.0 mi South 9.2 mph 16.1 mph N/A   Partly Cloudy
2:50 PM 73.4 °F - 50.0 °F 44% 30.19 in 10.0 mi SSE 9.2 mph - N/A   Scattered Clouds
3:10 PM 73.4 °F - 50.0 °F 44% 30.19 in 10.0 mi SSE 10.4 mph 16.1 mph N/A   Partly Cloudy
3:30 PM 71.6 °F - 50.0 °F 46% 30.18 in 10.0 mi SSE 8.1 mph - N/A   Clear
3:50 PM 69.8 °F - 50.0 °F 49% 30.18 in 10.0 mi SSW 5.8 mph - N/A   Clear
4:30 PM 68.0 °F - 50.0 °F 52% 30.17 in 10.0 mi SSE 5.8 mph - N/A   Partly Cloudy
4:50 PM 66.2 °F - 50.0 °F 56% 30.18 in 10.0 mi SSE 3.5 mph - N/A   Clear
5:10 PM 64.4 °F - 50.0 °F 59% 30.18 in 10.0 mi SE 3.5 mph - N/A   Clear
5:30 PM 64.4 °F - 50.0 °F 59% 30.18 in 10.0 mi SE 3.5 mph - N/A   Unknown
5:50 PM 62.6 °F - 50.0 °F 63% 30.18 in 10.0 mi SE 3.5 mph - N/A   Unknown
6:10 PM 62.6 °F - 50.0 °F 63% 30.19 in 10.0 mi SSE 3.5 mph - N/A   Unknown
6:30 PM 59.0 °F - 50.0 °F 72% 30.19 in 10.0 mi SSE 3.5 mph - N/A   Unknown
6:50 PM 59.0 °F - 50.0 °F 72% 30.19 in 10.0 mi SE 3.5 mph - N/A   Unknown
7:10 PM 55.4 °F - 50.0 °F 82% 30.19 in 10.0 mi SE 3.5 mph - N/A   Unknown
7:30 PM 57.2 °F - 50.0 °F 77% 30.19 in 10.0 mi SSE 4.6 mph - N/A   Unknown
7:50 PM 55.4 °F - 50.0 °F 82% 30.18 in 10.0 mi SE 4.6 mph - N/A   Unknown
8:10 PM 57.2 °F - 50.0 °F 77% 30.18 in 10.0 mi SSE 5.8 mph - N/A   Unknown
8:30 PM 57.2 °F - 50.0 °F 77% 30.17 in 10.0 mi SE 5.8 mph - N/A   Unknown
8:50 PM 57.2 °F - 50.0 °F 77% 30.18 in 10.0 mi SSE 4.6 mph - N/A   Unknown
9:10 PM 55.4 °F - 50.0 °F 82% 30.17 in 10.0 mi SE 3.5 mph - N/A   Unknown
9:50 PM 57.2 °F - 50.0 °F 77% 30.17 in 10.0 mi SE 3.5 mph - N/A   Unknown
10:10 PM 55.4 °F - 50.0 °F 82% 30.17 in 10.0 mi Calm Calm - N/A   Unknown
10:30 PM 55.4 °F - 50.0 °F 82% 30.17 in 10.0 mi SE 3.5 mph - N/A   Unknown
10:50 PM 55.4 °F - 50.0 °F 82% 30.16 in 10.0 mi ESE 4.6 mph - N/A   Unknown
11:10 PM 55.4 °F - 50.0 °F 82% 30.15 in 10.0 mi SE 3.5 mph - N/A   Unknown
11:30 PM 55.4 °F - 50.0 °F 82% 30.15 in 10.0 mi South 5.8 mph - N/A   Unknown
11:50 PM 57.2 °F - 50.0 °F 77% 30.16 in 10.0 mi Calm Calm - N/A   Unknown